Globalstar
NORAD ID: 25884
Int'l Code: 1999-043B
Perigee: 1,420.0 km
Apogee: 1,421.5 km
Inclination: 52.0 °
Period: 114.1 minutes
Semi major axis: 7791 km
Launch date: August 17, 1999
Source: Globalstar (GLOB)
Two Line Element Set (TLE):
1 25884U 99043B 13138.45999250 -.00000123 00000-0 -10624-3 0 1032
2 25884 052.0063 120.7404 0000917 016.8206 160.6603 12.62266419634388
Source: AFSPC
NASA's NSSDC Master Catalog entry for GLOBALSTAR M027